Погода в Кзыл-Чишме

Россия / Чувашская Республика     54°59′40″N   47°48′18″E
темп.,
°C
ветер,
м/с
пор.,
м/с
влажн.,
%
обл.,
%
осадки,
мм/ч
давл.,
гПа
погр.,
м
12 мая, ср
ср1200:00+16юз116599 0.0 102615
03:00+15св227118 0.0 102611
06:00+16в256938 0.0 1026143
09:00+22вюв474541 0.0 1026699
12:00+24юв683774 0.0 10261594
15:00+24вюв6936100 0.0 10252593
18:00+21вюв3658100 0.0 1024167
21:00+17юв366279 0.0 102594
13 мая, чт
чт1300:00+16вюв346747 0.0 102561
03:00+15вюв377127 0.0 1025146
06:00+16вюв496857 0.0 1025281
09:00+19вюв5955100 0.0 1024472
12:00+20юв81153100 0.0 1023938
15:00+17вюв51079100 0.2 1022412
18:00+20вюв6136593 0.0 1021537
21:00+18ююв41369100 0.1 1021346
14 мая, пт
пт1400:00+15ююв5127415 0.1 1021240
03:00+14ююв35835 0.9 102175
06:00+16ююв247736 0.0 1021127
09:00+21ю356075 0.0 1021475
12:00+25ю5751100 0.0 10211259
15:00+26ю5940100 0.0 10201513
18:00+23ю511495 0.0 1019391
21:00+19ююв4126459 0.0 1019245
15 мая, сб
сб1500:00+17ю4126379 0.0 1019242
03:00+16ююв496394 0.0 1020145
06:00+17ююв5126075 0.0 1020265
09:00+24ю61040100 0.0 1019524
12:00+27ю71031100 0.0 10191168
15:00+28ю61031100 0.0 10181550
18:00+24ю510445 0.0 1018275
21:00+19ю413525 0.0 1018213
16 мая, вс
вс1600:00+18ю413525 0.0 1017197
03:00+17ю412565 0.0 1017183
06:00+19ю5135759 0.0 1017270
09:00+25ю611415 0.0 1016633
12:00+28ююз71031100 0.0 10161847
15:00+28ююз78345 0.0 10151809
18:00+25ююз49475 0.0 1015288
21:00+21ююз475877 0.0 1015100